Time,TemperatureF,DewpointF,PressureIn,WindDirection,WindDirectionDegrees,WindSpeedMPH,WindSpeedGustMPH,Humidity,HourlyPrecipIn,Conditions,Clouds,dailyrainin,SoftwareType,DateUTC
2013-10-20 00:00:00,43.8,40.8,29.45,West,267,9.0,-999.0,89,0.00,,,0.00,Wunderground v.1.15,2013-10-20 04:00:00,
2013-10-20 00:05:00,43.8,40.8,29.45,WSW,254,9.0,-999.0,89,0.00,,,0.00,Wunderground v.1.15,2013-10-20 04:05:00,
2013-10-20 00:10:00,43.6,40.6,29.45,WSW,252,8.0,-999.0,89,0.00,,,0.00,Wunderground v.1.15,2013-10-20 04:10:00,
2013-10-20 00:15:00,43.4,40.4,29.45,WSW,251,7.0,-999.0,89,0.00,,,0.00,Wunderground v.1.15,2013-10-20 04:15:00,
2013-10-20 00:20:00,43.3,40.3,29.46,WSW,250,7.0,-999.0,89,0.00,,,0.00,Wunderground v.1.15,2013-10-20 04:20:00,
2013-10-20 00:25:00,43.2,40.2,29.46,WSW,248,7.0,-999.0,89,0.00,,,0.00,Wunderground v.1.15,2013-10-20 04:25:00,
2013-10-20 00:30:00,43.0,40.3,29.46,WSW,246,6.0,-999.0,90,0.00,,,0.00,Wunderground v.1.15,2013-10-20 04:30:00,
2013-10-20 00:35:00,43.0,40.3,29.47,WSW,239,6.0,-999.0,90,0.00,,,0.00,Wunderground v.1.15,2013-10-20 04:35:00,
2013-10-20 00:40:00,43.2,40.5,29.47,WSW,243,8.0,-999.0,90,0.00,,,0.00,Wunderground v.1.15,2013-10-20 04:40:00,
2013-10-20 00:45:00,43.3,40.6,29.47,SW,232,8.0,-999.0,90,0.00,,,0.00,Wunderground v.1.15,2013-10-20 04:45:00,
2013-10-20 00:50:00,43.3,40.6,29.47,SW,236,7.0,-999.0,90,0.00,,,0.00,Wunderground v.1.15,2013-10-20 04:50:00,
2013-10-20 00:55:00,43.3,40.6,29.47,SW,234,7.0,-999.0,90,0.00,,,0.00,Wunderground v.1.15,2013-10-20 04:55:00,
2013-10-20 01:00:00,43.3,40.6,29.47,WSW,239,5.0,-999.0,90,0.00,,,0.00,Wunderground v.1.15,2013-10-20 05:00:00,
2013-10-20 01:10:00,43.5,40.8,29.47,WSW,252,7.0,-999.0,90,0.00,,,0.00,Wunderground v.1.15,2013-10-20 05:10:00,
2013-10-20 01:15:00,43.4,40.7,29.48,WSW,253,8.0,-999.0,90,0.00,,,0.00,Wunderground v.1.15,2013-10-20 05:15:00,
2013-10-20 01:25:00,42.6,39.6,29.49,West,281,10.0,-999.0,89,0.00,,,0.00,Wunderground v.1.15,2013-10-20 05:25:00,
2013-10-20 01:30:00,42.4,39.4,29.49,West,281,10.0,-999.0,89,0.00,,,0.00,Wunderground v.1.15,2013-10-20 05:30:00,
2013-10-20 01:35:00,41.9,38.9,29.50,West,275,9.0,-999.0,89,0.00,,,0.00,Wunderground v.1.15,2013-10-20 05:35:00,
2013-10-20 01:40:00,41.6,38.9,29.50,WSW,255,8.0,-999.0,90,0.00,,,0.00,Wunderground v.1.15,2013-10-20 05:40:00,
2013-10-20 01:45:00,41.3,38.9,29.50,WSW,246,10.0,-999.0,91,0.00,,,0.00,Wunderground v.1.15,2013-10-20 05:45:00,
2013-10-20 01:55:00,40.7,38.3,29.50,WSW,254,12.0,-999.0,91,0.00,,,0.00,Wunderground v.1.15,2013-10-20 05:55:00,
2013-10-20 02:00:00,40.4,38.0,29.49,WSW,238,12.0,-999.0,91,0.00,,,0.00,Wunderground v.1.15,2013-10-20 06:00:00,
2013-10-20 02:10:00,40.1,38.0,29.50,WSW,244,9.0,-999.0,92,0.00,,,0.00,Wunderground v.1.15,2013-10-20 06:10:00,
2013-10-20 02:15:00,40.0,37.9,29.50,WSW,243,8.0,-999.0,92,0.00,,,0.00,Wunderground v.1.15,2013-10-20 06:15:00,
2013-10-20 02:20:00,39.8,37.7,29.50,SW,229,8.0,-999.0,92,0.00,,,0.00,Wunderground v.1.15,2013-10-20 06:20:00,
2013-10-20 02:30:00,39.6,37.5,29.50,SW,234,9.0,-999.0,92,0.00,,,0.00,Wunderground v.1.15,2013-10-20 06:30:00,
2013-10-20 02:35:00,39.6,37.5,29.50,SW,217,9.0,-999.0,92,0.00,,,0.00,Wunderground v.1.15,2013-10-20 06:35:00,
2013-10-20 02:40:00,39.9,37.8,29.50,WSW,242,9.0,-999.0,92,0.00,,,0.00,Wunderground v.1.15,2013-10-20 06:40:00,
2013-10-20 02:45:00,40.1,38.0,29.50,WSW,246,9.0,-999.0,92,0.00,,,0.00,Wunderground v.1.15,2013-10-20 06:45:00,
2013-10-20 02:50:00,40.3,38.2,29.50,WSW,242,9.0,-999.0,92,0.00,,,0.00,Wunderground v.1.15,2013-10-20 06:50:00,
2013-10-20 03:00:00,40.4,38.3,29.50,SW,236,9.0,-999.0,92,0.00,,,0.00,Wunderground v.1.15,2013-10-20 07:00:00,
2013-10-20 03:10:00,40.2,38.1,29.50,WSW,238,8.0,-999.0,92,0.00,,,0.00,Wunderground v.1.15,2013-10-20 07:10:00,
2013-10-20 03:15:00,40.2,38.1,29.50,WSW,240,8.0,-999.0,92,0.00,,,0.00,Wunderground v.1.15,2013-10-20 07:15:00,
2013-10-20 03:20:00,40.1,38.0,29.50,SW,223,8.0,-999.0,92,0.00,,,0.00,Wunderground v.1.15,2013-10-20 07:20:00,
2013-10-20 03:25:00,40.1,38.0,29.50,WSW,242,7.0,-999.0,92,0.00,,,0.00,Wunderground v.1.15,2013-10-20 07:25:00,
2013-10-20 03:35:00,40.2,38.1,29.50,WSW,248,8.0,-999.0,92,0.00,,,0.00,Wunderground v.1.15,2013-10-20 07:35:00,
2013-10-20 03:40:00,40.3,38.2,29.50,WSW,240,8.0,-999.0,92,0.00,,,0.00,Wunderground v.1.15,2013-10-20 07:40:00,
2013-10-20 03:45:00,40.4,38.3,29.50,WSW,240,9.0,-999.0,92,0.00,,,0.00,Wunderground v.1.15,2013-10-20 07:45:00,
2013-10-20 03:50:00,40.5,38.4,29.50,WSW,244,8.0,-999.0,92,0.00,,,0.00,Wunderground v.1.15,2013-10-20 07:50:00,
2013-10-20 03:55:00,40.7,38.8,29.50,SW,221,8.0,-999.0,93,0.00,,,0.00,Wunderground v.1.15,2013-10-20 07:55:00,
2013-10-20 04:00:00,41.1,39.2,29.50,WSW,246,9.0,-999.0,93,0.00,,,0.00,Wunderground v.1.15,2013-10-20 08:00:00,
2013-10-20 04:10:00,41.5,39.3,29.50,SW,233,8.0,-999.0,92,0.00,,,0.00,Wunderground v.1.15,2013-10-20 08:10:00,
2013-10-20 04:15:00,41.6,39.4,29.51,SW,225,8.0,-999.0,92,0.00,,,0.00,Wunderground v.1.15,2013-10-20 08:15:00,
2013-10-20 04:20:00,41.8,39.6,29.51,SW,232,8.0,-999.0,92,0.00,,,0.00,Wunderground v.1.15,2013-10-20 08:20:00,
2013-10-20 04:25:00,41.8,39.6,29.51,WSW,237,9.0,-999.0,92,0.00,,,0.00,Wunderground v.1.15,2013-10-20 08:25:00,
2013-10-20 04:30:00,42.0,39.8,29.51,WSW,248,10.0,-999.0,92,0.00,,,0.00,Wunderground v.1.15,2013-10-20 08:30:00,
2013-10-20 04:40:00,41.9,39.5,29.52,WSW,246,12.0,-999.0,91,0.00,,,0.00,Wunderground v.1.15,2013-10-20 08:40:00,
2013-10-20 04:45:00,41.9,39.5,29.52,West,263,12.0,-999.0,91,0.00,,,0.00,Wunderground v.1.15,2013-10-20 08:45:00,
2013-10-20 04:50:00,41.7,39.3,29.52,WSW,246,11.0,-999.0,91,0.00,,,0.00,Wunderground v.1.15,2013-10-20 08:50:00,
2013-10-20 04:55:00,41.5,39.1,29.52,WSW,242,10.0,-999.0,91,0.00,,,0.00,Wunderground v.1.15,2013-10-20 08:55:00,
2013-10-20 05:00:00,41.3,38.9,29.52,WSW,247,9.0,-999.0,91,0.00,,,0.00,Wunderground v.1.15,2013-10-20 09:00:00,
2013-10-20 05:05:00,41.3,38.9,29.52,WSW,249,8.0,-999.0,91,0.00,,,0.00,Wunderground v.1.15,2013-10-20 09:05:00,
2013-10-20 05:10:00,41.0,38.6,29.52,WSW,238,8.0,-999.0,91,0.00,,,0.00,Wunderground v.1.15,2013-10-20 09:10:00,
2013-10-20 05:15:00,40.7,38.3,29.52,WSW,250,8.0,-999.0,91,0.00,,,0.00,Wunderground v.1.15,2013-10-20 09:15:00,
2013-10-20 05:20:00,40.4,38.0,29.52,SW,233,8.0,-999.0,91,0.00,,,0.00,Wunderground v.1.15,2013-10-20 09:20:00,
2013-10-20 05:25:00,40.4,38.0,29.52,SW,234,9.0,-999.0,91,0.00,,,0.00,Wunderground v.1.15,2013-10-20 09:25:00,
2013-10-20 05:30:00,40.3,37.9,29.52,SW,234,8.0,-999.0,91,0.00,,,0.00,Wunderground v.1.15,2013-10-20 09:30:00,
2013-10-20 05:40:00,40.0,37.6,29.52,SW,218,8.0,-999.0,91,0.00,,,0.00,Wunderground v.1.15,2013-10-20 09:40:00,
2013-10-20 05:45:00,39.9,37.5,29.52,SW,231,8.0,-999.0,91,0.00,,,0.00,Wunderground v.1.15,2013-10-20 09:45:00,
2013-10-20 05:50:00,39.9,37.5,29.52,SW,234,7.0,-999.0,91,0.00,,,0.00,Wunderground v.1.15,2013-10-20 09:50:00,
2013-10-20 05:55:00,40.0,37.9,29.52,WSW,237,7.0,-999.0,92,0.00,,,0.00,Wunderground v.1.15,2013-10-20 09:55:00,
2013-10-20 06:00:00,40.2,38.1,29.52,SW,236,7.0,-999.0,92,0.00,,,0.00,Wunderground v.1.15,2013-10-20 10:00:00,
2013-10-20 06:10:00,40.5,38.1,29.53,WSW,242,9.0,-999.0,91,0.00,,,0.00,Wunderground v.1.15,2013-10-20 10:10:00,
2013-10-20 06:15:00,40.4,38.0,29.53,WSW,248,8.0,-999.0,91,0.00,,,0.00,Wunderground v.1.15,2013-10-20 10:15:00,
2013-10-20 06:20:00,40.5,38.1,29.53,WSW,247,8.0,-999.0,91,0.00,,,0.00,Wunderground v.1.15,2013-10-20 10:20:00,
2013-10-20 06:25:00,40.4,38.0,29.53,SW,236,8.0,-999.0,91,0.00,,,0.00,Wunderground v.1.15,2013-10-20 10:25:00,
2013-10-20 06:30:00,40.4,38.0,29.53,SW,225,7.0,-999.0,91,0.00,,,0.00,Wunderground v.1.15,2013-10-20 10:30:00,
2013-10-20 06:35:00,40.8,38.4,29.53,SW,234,7.0,-999.0,91,0.00,,,0.00,Wunderground v.1.15,2013-10-20 10:35:00,
2013-10-20 06:45:00,40.6,38.2,29.54,SW,235,7.0,-999.0,91,0.00,,,0.00,Wunderground v.1.15,2013-10-20 10:45:00,
2013-10-20 06:50:00,40.5,38.1,29.54,SW,235,8.0,-999.0,91,0.00,,,0.00,Wunderground v.1.15,2013-10-20 10:50:00,
2013-10-20 06:55:00,40.9,38.8,29.54,SW,233,8.0,-999.0,92,0.00,,,0.00,Wunderground v.1.15,2013-10-20 10:55:00,
2013-10-20 07:00:00,40.9,38.5,29.55,WSW,240,9.0,-999.0,91,0.00,,,0.00,Wunderground v.1.15,2013-10-20 11:00:00,
2013-10-20 07:10:00,41.2,38.8,29.55,WSW,237,8.0,-999.0,91,0.00,,,0.00,Wunderground v.1.15,2013-10-20 11:10:00,
2013-10-20 07:20:00,41.2,38.8,29.55,SW,234,9.0,-999.0,91,0.00,,,0.00,Wunderground v.1.15,2013-10-20 11:20:00,
2013-10-20 07:25:00,41.5,39.1,29.55,WSW,242,9.0,-999.0,91,0.00,,,0.00,Wunderground v.1.15,2013-10-20 11:25:00,
2013-10-20 07:30:00,41.4,39.0,29.55,SW,232,9.0,-999.0,91,0.00,,,0.00,Wunderground v.1.15,2013-10-20 11:30:00,
2013-10-20 07:35:00,41.4,39.0,29.55,WSW,238,9.0,-999.0,91,0.00,,,0.00,Wunderground v.1.15,2013-10-20 11:35:00,
2013-10-20 07:40:00,41.4,39.0,29.55,SW,226,8.0,-999.0,91,0.00,,,0.00,Wunderground v.1.15,2013-10-20 11:40:00,
2013-10-20 07:50:00,42.0,39.8,29.56,SW,224,7.0,-999.0,92,0.00,,,0.00,Wunderground v.1.15,2013-10-20 11:50:00,
2013-10-20 07:55:00,41.8,39.4,29.56,SSW,208,8.0,-999.0,91,0.00,,,0.00,Wunderground v.1.15,2013-10-20 11:55:00,
2013-10-20 08:00:00,41.6,39.2,29.55,SW,220,9.0,-999.0,91,0.00,,,0.00,Wunderground v.1.15,2013-10-20 12:00:00,
2013-10-20 08:10:00,41.6,39.2,29.56,WSW,237,8.0,-999.0,91,0.00,,,0.00,Wunderground v.1.15,2013-10-20 12:10:00,
2013-10-20 08:15:00,41.7,39.3,29.56,SW,232,7.0,-999.0,91,0.00,,,0.00,Wunderground v.1.15,2013-10-20 12:15:00,
2013-10-20 08:25:00,41.7,39.3,29.56,SW,232,7.0,-999.0,91,0.00,,,0.00,Wunderground v.1.15,2013-10-20 12:25:00,
2013-10-20 08:30:00,41.7,39.3,29.57,SW,229,8.0,-999.0,91,0.00,,,0.00,Wunderground v.1.15,2013-10-20 12:30:00,
2013-10-20 08:35:00,41.9,39.5,29.58,WSW,241,10.0,-999.0,91,0.00,,,0.00,Wunderground v.1.15,2013-10-20 12:35:00,
2013-10-20 08:40:00,42.0,39.6,29.58,WSW,238,10.0,-999.0,91,0.00,,,0.00,Wunderground v.1.15,2013-10-20 12:40:00,
2013-10-20 08:45:00,42.2,39.8,29.58,WSW,246,11.0,-999.0,91,0.00,,,0.00,Wunderground v.1.15,2013-10-20 12:45:00,
2013-10-20 08:55:00,42.1,39.4,29.59,WSW,248,11.0,-999.0,90,0.00,,,0.00,Wunderground v.1.15,2013-10-20 12:55:00,
2013-10-20 09:00:00,42.0,39.6,29.59,West,271,10.0,-999.0,91,0.00,,,0.00,Wunderground v.1.15,2013-10-20 13:00:00,
2013-10-20 09:10:00,41.8,39.4,29.60,West,277,6.0,-999.0,91,0.00,,,0.00,Wunderground v.1.15,2013-10-20 13:10:00,
2013-10-20 09:15:00,41.8,39.6,29.60,West,271,6.0,-999.0,92,0.00,,,0.00,Wunderground v.1.15,2013-10-20 13:15:00,
2013-10-20 09:20:00,41.9,39.7,29.60,West,272,5.0,-999.0,92,0.00,,,0.00,Wunderground v.1.15,2013-10-20 13:20:00,
2013-10-20 09:30:00,41.8,39.6,29.60,West,274,4.0,-999.0,92,0.00,,,0.00,Wunderground v.1.15,2013-10-20 13:30:00,
2013-10-20 09:35:00,41.9,39.7,29.61,West,274,3.0,-999.0,92,0.00,,,0.00,Wunderground v.1.15,2013-10-20 13:35:00,
2013-10-20 09:40:00,41.9,39.7,29.61,West,274,3.0,-999.0,92,0.00,,,0.00,Wunderground v.1.15,2013-10-20 13:40:00,
2013-10-20 09:45:00,42.0,40.1,29.61,West,273,4.0,-999.0,93,0.00,,,0.00,Wunderground v.1.15,2013-10-20 13:45:00,
2013-10-20 09:50:00,42.0,40.1,29.61,West,268,2.0,-999.0,93,0.00,,,0.00,Wunderground v.1.15,2013-10-20 13:50:00,
2013-10-20 10:00:00,42.2,40.3,29.61,West,267,3.0,-999.0,93,0.00,,,0.00,Wunderground v.1.15,2013-10-20 14:00:00,
2013-10-20 10:10:00,42.8,40.9,29.61,West,265,3.0,-999.0,93,0.00,,,0.00,Wunderground v.1.15,2013-10-20 14:10:00,
2013-10-20 10:15:00,42.9,41.0,29.61,WSW,245,4.0,-999.0,93,0.00,,,0.00,Wunderground v.1.15,2013-10-20 14:15:00,
2013-10-20 10:20:00,43.3,41.4,29.61,WSW,245,5.0,-999.0,93,0.00,,,0.00,Wunderground v.1.15,2013-10-20 14:20:00,
2013-10-20 10:25:00,43.3,41.1,29.61,WSW,241,4.0,-999.0,92,0.00,,,0.00,Wunderground v.1.15,2013-10-20 14:25:00,
2013-10-20 10:30:00,43.6,41.4,29.61,SW,219,6.0,-999.0,92,0.00,,,0.00,Wunderground v.1.15,2013-10-20 14:30:00,
2013-10-20 10:35:00,44.0,41.8,29.61,SW,234,7.0,-999.0,92,0.00,,,0.00,Wunderground v.1.15,2013-10-20 14:35:00,
2013-10-20 10:45:00,44.3,41.8,29.61,WSW,240,8.0,-999.0,91,0.00,,,0.00,Wunderground v.1.15,2013-10-20 14:45:00,
2013-10-20 10:50:00,44.2,41.5,29.61,WSW,239,8.0,-999.0,90,0.00,,,0.00,Wunderground v.1.15,2013-10-20 14:50:00,
2013-10-20 10:55:00,44.4,41.7,29.61,SW,235,9.0,-999.0,90,0.00,,,0.00,Wunderground v.1.15,2013-10-20 14:55:00,
2013-10-20 11:00:00,44.5,41.7,29.61,WSW,242,8.0,-999.0,90,0.00,,,0.00,Wunderground v.1.15,2013-10-20 15:00:00,
2013-10-20 11:10:00,45.0,42.2,29.61,WSW,255,8.0,-999.0,90,0.00,,,0.00,Wunderground v.1.15,2013-10-20 15:10:00,
2013-10-20 11:15:00,45.1,42.3,29.61,SW,230,8.0,-999.0,90,0.00,,,0.00,Wunderground v.1.15,2013-10-20 15:15:00,
2013-10-20 11:20:00,45.3,42.5,29.61,WSW,238,7.0,-999.0,90,0.00,,,0.00,Wunderground v.1.15,2013-10-20 15:20:00,
2013-10-20 11:25:00,45.4,42.3,29.62,SW,232,8.0,-999.0,89,0.00,,,0.00,Wunderground v.1.15,2013-10-20 15:25:00,
2013-10-20 11:35:00,45.6,42.5,29.62,SW,222,9.0,-999.0,89,0.00,,,0.00,Wunderground v.1.15,2013-10-20 15:35:00,
2013-10-20 11:40:00,45.5,42.4,29.62,WSW,246,9.0,-999.0,89,0.00,,,0.00,Wunderground v.1.15,2013-10-20 15:40:00,
2013-10-20 11:45:00,45.4,42.1,29.62,WSW,258,9.0,-999.0,88,0.00,,,0.00,Wunderground v.1.15,2013-10-20 15:45:00,
2013-10-20 11:50:00,45.4,42.1,29.62,SW,231,9.0,-999.0,88,0.00,,,0.00,Wunderground v.1.15,2013-10-20 15:50:00,
2013-10-20 11:55:00,45.6,42.3,29.62,West,269,8.0,-999.0,88,0.00,,,0.00,Wunderground v.1.15,2013-10-20 15:55:00,
2013-10-20 12:00:00,45.9,42.2,29.62,WSW,242,7.0,-999.0,87,0.00,,,0.00,Wunderground v.1.15,2013-10-20 16:00:00,
2013-10-20 12:10:00,46.1,42.1,29.62,SSW,212,10.0,-999.0,86,0.00,,,0.00,Wunderground v.1.15,2013-10-20 16:10:00,
2013-10-20 12:15:00,46.1,42.1,29.63,WSW,237,11.0,-999.0,86,0.00,,,0.00,Wunderground v.1.15,2013-10-20 16:15:00,
2013-10-20 12:20:00,46.2,42.2,29.63,SW,231,10.0,-999.0,86,0.00,,,0.00,Wunderground v.1.15,2013-10-20 16:20:00,
2013-10-20 12:25:00,46.4,42.4,29.63,SW,223,9.0,-999.0,86,0.00,,,0.00,Wunderground v.1.15,2013-10-20 16:25:00,
2013-10-20 12:30:00,46.4,42.4,29.63,WSW,238,9.0,-999.0,86,0.00,,,0.00,Wunderground v.1.15,2013-10-20 16:30:00,
2013-10-20 12:40:00,46.4,42.4,29.63,WSW,242,8.0,-999.0,86,0.00,,,0.00,Wunderground v.1.15,2013-10-20 16:40:00,
2013-10-20 12:45:00,46.3,42.3,29.63,WSW,249,8.0,-999.0,86,0.00,,,0.00,Wunderground v.1.15,2013-10-20 16:45:00,
2013-10-20 12:50:00,46.2,42.2,29.63,WSW,247,8.0,-999.0,86,0.00,,,0.00,Wunderground v.1.15,2013-10-20 16:50:00,
2013-10-20 12:55:00,46.0,42.0,29.63,WSW,258,10.0,-999.0,86,0.00,,,0.00,Wunderground v.1.15,2013-10-20 16:55:00,
2013-10-20 13:00:00,46.0,42.3,29.63,WSW,254,10.0,-999.0,87,0.00,,,0.00,Wunderground v.1.15,2013-10-20 17:00:00,
2013-10-20 13:10:00,45.5,42.2,29.63,WSW,248,11.0,-999.0,88,0.00,,,0.00,Wunderground v.1.15,2013-10-20 17:10:00,
2013-10-20 13:15:00,45.4,42.3,29.63,SW,230,10.0,-999.0,89,0.00,,,0.00,Wunderground v.1.15,2013-10-20 17:15:00,
2013-10-20 13:20:00,45.4,42.3,29.63,SW,235,8.0,-999.0,89,0.00,,,0.00,Wunderground v.1.15,2013-10-20 17:20:00,
2013-10-20 13:25:00,45.6,42.5,29.63,SW,227,6.0,-999.0,89,0.00,,,0.00,Wunderground v.1.15,2013-10-20 17:25:00,
2013-10-20 13:30:00,45.9,42.5,29.63,WSW,247,7.0,-999.0,88,0.00,,,0.00,Wunderground v.1.15,2013-10-20 17:30:00,
2013-10-20 13:35:00,46.1,42.7,29.63,WSW,248,8.0,-999.0,88,0.00,,,0.00,Wunderground v.1.15,2013-10-20 17:35:00,
2013-10-20 13:45:00,46.2,42.5,29.63,WSW,242,6.0,-999.0,87,0.00,,,0.00,Wunderground v.1.15,2013-10-20 17:45:00,
2013-10-20 13:50:00,46.3,42.6,29.64,SW,218,5.0,-999.0,87,0.00,,,0.00,Wunderground v.1.15,2013-10-20 17:50:00,
2013-10-20 13:55:00,46.5,43.1,29.63,SW,222,4.0,-999.0,88,0.00,,,0.00,Wunderground v.1.15,2013-10-20 17:55:00,
2013-10-20 14:00:00,46.6,43.2,29.63,SSW,213,4.0,-999.0,88,0.00,,,0.00,Wunderground v.1.15,2013-10-20 18:00:00,
2013-10-20 14:10:00,46.7,43.3,29.63,SSW,206,5.0,-999.0,88,0.00,,,0.00,Wunderground v.1.15,2013-10-20 18:10:00,
2013-10-20 14:20:00,46.7,43.0,29.63,SSW,211,5.0,-999.0,87,0.00,,,0.00,Wunderground v.1.15,2013-10-20 18:20:00,
2013-10-20 14:25:00,46.7,43.0,29.63,SSW,211,5.0,-999.0,87,0.00,,,0.00,Wunderground v.1.15,2013-10-20 18:25:00,
2013-10-20 14:30:00,46.8,43.1,29.63,SSW,211,5.0,-999.0,87,0.00,,,0.00,Wunderground v.1.15,2013-10-20 18:30:00,
2013-10-20 14:35:00,46.9,42.6,29.63,WSW,243,5.0,-999.0,85,0.00,,,0.00,Wunderground v.1.15,2013-10-20 18:35:00,
2013-10-20 14:40:00,47.0,42.4,29.63,WSW,244,6.0,-999.0,84,0.00,,,0.00,Wunderground v.1.15,2013-10-20 18:40:00,
2013-10-20 14:45:00,46.9,42.0,29.63,SW,235,7.0,-999.0,83,0.00,,,0.00,Wunderground v.1.15,2013-10-20 18:45:00,
2013-10-20 14:50:00,46.7,42.1,29.63,WSW,255,7.0,-999.0,84,0.00,,,0.00,Wunderground v.1.15,2013-10-20 18:50:00,
2013-10-20 14:55:00,46.7,42.1,29.63,West,263,8.0,-999.0,84,0.00,,,0.00,Wunderground v.1.15,2013-10-20 18:55:00,
2013-10-20 15:00:00,46.7,41.8,29.63,West,263,8.0,-999.0,83,0.00,,,0.00,Wunderground v.1.15,2013-10-20 19:00:00,
2013-10-20 15:10:00,46.6,42.0,29.64,WSW,257,9.0,-999.0,84,0.00,,,0.00,Wunderground v.1.15,2013-10-20 19:10:00,
2013-10-20 15:15:00,46.4,41.8,29.64,West,271,8.0,-999.0,84,0.00,,,0.00,Wunderground v.1.15,2013-10-20 19:15:00,
2013-10-20 15:25:00,46.3,41.4,29.63,West,279,10.0,-999.0,83,0.00,,,0.00,Wunderground v.1.15,2013-10-20 19:25:00,
2013-10-20 15:30:00,46.1,41.8,29.63,West,262,8.0,-999.0,85,0.00,,,0.00,Wunderground v.1.15,2013-10-20 19:30:00,
2013-10-20 15:35:00,46.0,42.0,29.63,West,264,7.0,-999.0,86,0.00,,,0.00,Wunderground v.1.15,2013-10-20 19:35:00,
2013-10-20 15:40:00,46.0,42.0,29.63,WSW,245,7.0,-999.0,86,0.00,,,0.00,Wunderground v.1.15,2013-10-20 19:40:00,
2013-10-20 15:45:00,46.0,42.3,29.64,WSW,240,8.0,-999.0,87,0.00,,,0.00,Wunderground v.1.15,2013-10-20 19:45:00,
2013-10-20 15:55:00,46.2,42.5,29.64,WSW,252,7.0,-999.0,87,0.00,,,0.00,Wunderground v.1.15,2013-10-20 19:55:00,
2013-10-20 16:00:00,46.5,42.8,29.63,WSW,251,6.0,-999.0,87,0.00,,,0.00,Wunderground v.1.15,2013-10-20 20:00:00,
2013-10-20 16:10:00,46.7,43.0,29.64,WSW,255,6.0,-999.0,87,0.00,,,0.00,Wunderground v.1.15,2013-10-20 20:10:00,
2013-10-20 16:15:00,46.7,42.7,29.64,West,265,6.0,-999.0,86,0.00,,,0.00,Wunderground v.1.15,2013-10-20 20:15:00,
2013-10-20 16:20:00,46.8,43.1,29.64,West,265,5.0,-999.0,87,0.00,,,0.00,Wunderground v.1.15,2013-10-20 20:20:00,
2013-10-20 16:30:00,46.6,42.6,29.64,WSW,252,5.0,-999.0,86,0.00,,,0.00,Wunderground v.1.15,2013-10-20 20:30:00,
2013-10-20 16:35:00,46.6,42.6,29.64,WSW,252,4.0,-999.0,86,0.00,,,0.00,Wunderground v.1.15,2013-10-20 20:35:00,
2013-10-20 16:40:00,46.6,42.6,29.64,WSW,252,3.0,-999.0,86,0.00,,,0.00,Wunderground v.1.15,2013-10-20 20:40:00,
2013-10-20 16:45:00,46.5,42.8,29.64,WSW,252,3.0,-999.0,87,0.00,,,0.00,Wunderground v.1.15,2013-10-20 20:45:00,
2013-10-20 16:50:00,46.5,42.8,29.65,WSW,252,3.0,-999.0,87,0.00,,,0.00,Wunderground v.1.15,2013-10-20 20:50:00,
2013-10-20 17:00:00,46.5,43.1,29.65,WSW,252,4.0,-999.0,88,0.00,,,0.00,Wunderground v.1.15,2013-10-20 21:00:00,
2013-10-20 17:10:00,46.5,43.4,29.65,WSW,252,4.0,-999.0,89,0.00,,,0.00,Wunderground v.1.15,2013-10-20 21:10:00,
2013-10-20 17:15:00,46.4,43.3,29.66,WSW,258,5.0,-999.0,89,0.00,,,0.00,Wunderground v.1.15,2013-10-20 21:15:00,
2013-10-20 17:20:00,46.1,43.3,29.66,West,259,5.0,-999.0,90,0.00,,,0.00,Wunderground v.1.15,2013-10-20 21:20:00,
2013-10-20 17:25:00,46.0,43.2,29.66,West,263,5.0,-999.0,90,0.00,,,0.00,Wunderground v.1.15,2013-10-20 21:25:00,
2013-10-20 17:30:00,46.0,43.5,29.66,West,262,4.0,-999.0,91,0.00,,,0.00,Wunderground v.1.15,2013-10-20 21:30:00,
2013-10-20 17:35:00,46.0,43.5,29.66,West,262,4.0,-999.0,91,0.00,,,0.00,Wunderground v.1.15,2013-10-20 21:35:00,
2013-10-20 17:40:00,46.0,43.5,29.66,West,262,3.0,-999.0,91,0.00,,,0.00,Wunderground v.1.15,2013-10-20 21:40:00,
2013-10-20 17:45:00,46.0,43.5,29.66,West,262,2.0,-999.0,91,0.00,,,0.00,Wunderground v.1.15,2013-10-20 21:45:00,
2013-10-20 17:50:00,46.0,43.5,29.66,West,262,1.0,-999.0,91,0.00,,,0.00,Wunderground v.1.15,2013-10-20 21:50:00,
2013-10-20 17:55:00,46.0,43.5,29.66,West,262,1.0,-999.0,91,0.00,,,0.00,Wunderground v.1.15,2013-10-20 21:55:00,
2013-10-20 18:00:00,46.0,43.5,29.66,West,262,1.0,-999.0,91,0.00,,,0.00,Wunderground v.1.15,2013-10-20 22:00:00,
2013-10-20 18:10:00,46.1,43.9,29.66,West,262,1.0,-999.0,92,0.00,,,0.00,Wunderground v.1.15,2013-10-20 22:10:00,
2013-10-20 18:15:00,46.0,43.8,29.66,West,262,1.0,-999.0,92,0.00,,,0.00,Wunderground v.1.15,2013-10-20 22:15:00,
2013-10-20 18:20:00,45.9,43.7,29.67,West,262,0.0,-999.0,92,0.00,,,0.00,Wunderground v.1.15,2013-10-20 22:20:00,
2013-10-20 18:25:00,45.8,43.6,29.67,West,262,0.0,-999.0,92,0.00,,,0.00,Wunderground v.1.15,2013-10-20 22:25:00,
2013-10-20 18:35:00,45.7,43.5,29.67,West,262,0.0,-999.0,92,0.00,,,0.00,Wunderground v.1.15,2013-10-20 22:35:00,
2013-10-20 18:40:00,45.5,43.6,29.67,West,262,1.0,-999.0,93,0.00,,,0.00,Wunderground v.1.15,2013-10-20 22:40:00,
2013-10-20 18:45:00,45.3,43.4,29.67,West,262,2.0,-999.0,93,0.00,,,0.00,Wunderground v.1.15,2013-10-20 22:45:00,
2013-10-20 18:50:00,45.0,43.1,29.67,West,262,2.0,-999.0,93,0.00,,,0.00,Wunderground v.1.15,2013-10-20 22:50:00,
2013-10-20 18:55:00,44.8,42.9,29.67,West,262,2.0,-999.0,93,0.00,,,0.00,Wunderground v.1.15,2013-10-20 22:55:00,
2013-10-20 19:00:00,44.8,43.2,29.68,West,262,3.0,-999.0,94,0.00,,,0.00,Wunderground v.1.15,2013-10-20 23:00:00,
2013-10-20 19:10:00,44.7,43.1,29.67,West,262,3.0,-999.0,94,0.00,,,0.00,Wunderground v.1.15,2013-10-20 23:10:00,
2013-10-20 19:15:00,44.5,42.9,29.67,West,262,4.0,-999.0,94,0.00,,,0.00,Wunderground v.1.15,2013-10-20 23:15:00,
2013-10-20 19:20:00,44.3,42.7,29.67,West,262,5.0,-999.0,94,0.00,,,0.00,Wunderground v.1.15,2013-10-20 23:20:00,
2013-10-20 19:25:00,44.2,42.6,29.67,West,262,5.0,-999.0,94,0.00,,,0.00,Wunderground v.1.15,2013-10-20 23:25:00,
2013-10-20 19:30:00,44.0,42.4,29.67,West,262,4.0,-999.0,94,0.00,,,0.00,Wunderground v.1.15,2013-10-20 23:30:00,
2013-10-20 19:40:00,43.7,42.1,29.67,West,262,3.0,-999.0,94,0.00,,,0.00,Wunderground v.1.15,2013-10-20 23:40:00,
2013-10-20 19:45:00,43.7,42.1,29.67,West,262,4.0,-999.0,94,0.00,,,0.00,Wunderground v.1.15,2013-10-20 23:45:00,
2013-10-20 19:50:00,43.5,41.9,29.67,West,262,4.0,-999.0,94,0.00,,,0.00,Wunderground v.1.15,2013-10-20 23:50:00,
2013-10-20 19:55:00,43.6,42.0,29.67,West,262,3.0,-999.0,94,0.00,,,0.00,Wunderground v.1.15,2013-10-20 23:55:00,
2013-10-20 20:00:00,43.8,42.5,29.67,West,262,3.0,-999.0,95,0.00,,,0.00,Wunderground v.1.15,2013-10-21 00:00:00,
2013-10-20 20:10:00,44.1,42.8,29.67,West,262,3.0,-999.0,95,0.00,,,0.00,Wunderground v.1.15,2013-10-21 00:10:00,
2013-10-20 20:15:00,44.2,42.9,29.67,West,262,4.0,-999.0,95,0.00,,,0.00,Wunderground v.1.15,2013-10-21 00:15:00,
2013-10-20 20:20:00,44.2,42.6,29.67,West,262,4.0,-999.0,94,0.00,,,0.00,Wunderground v.1.15,2013-10-21 00:20:00,
2013-10-20 20:25:00,44.1,42.5,29.67,West,262,4.0,-999.0,94,0.00,,,0.00,Wunderground v.1.15,2013-10-21 00:25:00,
2013-10-20 20:30:00,44.0,42.4,29.67,West,262,3.0,-999.0,94,0.00,,,0.00,Wunderground v.1.15,2013-10-21 00:30:00,
2013-10-20 20:35:00,44.0,42.4,29.67,West,262,3.0,-999.0,94,0.00,,,0.00,Wunderground v.1.15,2013-10-21 00:35:00,
2013-10-20 20:45:00,44.4,43.1,29.67,West,262,3.0,-999.0,95,0.00,,,0.00,Wunderground v.1.15,2013-10-21 00:45:00,
2013-10-20 20:50:00,44.5,42.9,29.67,West,262,5.0,-999.0,94,0.00,,,0.00,Wunderground v.1.15,2013-10-21 00:50:00,
2013-10-20 20:55:00,44.6,43.0,29.67,West,262,5.0,-999.0,94,0.00,,,0.00,Wunderground v.1.15,2013-10-21 00:55:00,
2013-10-20 21:00:00,44.7,43.1,29.67,West,262,4.0,-999.0,94,0.00,,,0.00,Wunderground v.1.15,2013-10-21 01:00:00,
2013-10-20 21:10:00,44.8,43.2,29.68,West,262,3.0,-999.0,94,0.00,,,0.00,Wunderground v.1.15,2013-10-21 01:10:00,
2013-10-20 21:20:00,45.0,43.1,29.68,West,262,4.0,-999.0,93,0.00,,,0.00,Wunderground v.1.15,2013-10-21 01:20:00,
2013-10-20 21:25:00,45.2,43.3,29.68,West,260,5.0,-999.0,93,0.00,,,0.00,Wunderground v.1.15,2013-10-21 01:25:00,
2013-10-20 21:30:00,45.5,43.6,29.68,West,260,4.0,-999.0,93,0.00,,,0.00,Wunderground v.1.15,2013-10-21 01:30:00,
2013-10-20 21:35:00,45.7,43.5,29.68,WSW,251,4.0,-999.0,92,0.00,,,0.00,Wunderground v.1.15,2013-10-21 01:35:00,
2013-10-20 21:40:00,45.8,43.3,29.68,WSW,251,4.0,-999.0,91,0.00,,,0.00,Wunderground v.1.15,2013-10-21 01:40:00,
2013-10-20 21:50:00,45.6,42.8,29.68,WSW,250,4.0,-999.0,90,0.00,,,0.00,Wunderground v.1.15,2013-10-21 01:50:00,
2013-10-20 21:55:00,45.4,42.6,29.68,WSW,248,4.0,-999.0,90,0.00,,,0.00,Wunderground v.1.15,2013-10-21 01:55:00,
2013-10-20 22:00:00,45.4,42.6,29.68,WSW,246,4.0,-999.0,90,0.00,,,0.00,Wunderground v.1.15,2013-10-21 02:00:00,
2013-10-20 22:10:00,45.3,42.5,29.68,WSW,239,5.0,-999.0,90,0.00,,,0.00,Wunderground v.1.15,2013-10-21 02:10:00,
2013-10-20 22:15:00,45.3,42.2,29.68,SW,234,5.0,-999.0,89,0.00,,,0.00,Wunderground v.1.15,2013-10-21 02:15:00,
2013-10-20 22:25:00,45.3,42.0,29.68,SW,232,5.0,-999.0,88,0.00,,,0.00,Wunderground v.1.15,2013-10-21 02:25:00,
2013-10-20 22:30:00,45.1,41.8,29.68,SW,232,5.0,-999.0,88,0.00,,,0.00,Wunderground v.1.15,2013-10-21 02:30:00,
2013-10-20 22:35:00,44.9,41.6,29.68,SW,232,4.0,-999.0,88,0.00,,,0.00,Wunderground v.1.15,2013-10-21 02:35:00,
2013-10-20 22:40:00,44.8,41.5,29.68,SW,232,5.0,-999.0,88,0.00,,,0.00,Wunderground v.1.15,2013-10-21 02:40:00,
2013-10-20 22:45:00,44.9,41.6,29.68,SW,232,5.0,-999.0,88,0.00,,,0.00,Wunderground v.1.15,2013-10-21 02:45:00,
2013-10-20 22:50:00,45.0,41.7,29.68,SW,232,5.0,-999.0,88,0.00,,,0.00,Wunderground v.1.15,2013-10-21 02:50:00,
2013-10-20 22:55:00,45.1,41.8,29.69,SW,232,5.0,-999.0,88,0.00,,,0.00,Wunderground v.1.15,2013-10-21 02:55:00,
2013-10-20 23:00:00,45.3,42.0,29.68,SW,229,5.0,-999.0,88,0.00,,,0.00,Wunderground v.1.15,2013-10-21 03:00:00,
2013-10-20 23:10:00,45.8,41.9,29.68,SW,221,5.0,-999.0,86,0.00,,,0.00,Wunderground v.1.15,2013-10-21 03:10:00,
2013-10-20 23:15:00,45.9,41.6,29.68,SW,221,6.0,-999.0,85,0.00,,,0.00,Wunderground v.1.15,2013-10-21 03:15:00,
2013-10-20 23:20:00,46.1,41.8,29.69,SW,223,6.0,-999.0,85,0.00,,,0.00,Wunderground v.1.15,2013-10-21 03:20:00,
2013-10-20 23:25:00,46.2,41.6,29.69,SW,220,6.0,-999.0,84,0.00,,,0.00,Wunderground v.1.15,2013-10-21 03:25:00,
2013-10-20 23:30:00,46.1,41.5,29.68,SW,219,5.0,-999.0,84,0.00,,,0.00,Wunderground v.1.15,2013-10-21 03:30:00,
2013-10-20 23:35:00,46.0,41.7,29.69,SW,219,5.0,-999.0,85,0.00,,,0.00,Wunderground v.1.15,2013-10-21 03:35:00,
2013-10-20 23:40:00,45.9,41.6,29.68,SW,219,5.0,-999.0,85,0.00,,,0.00,Wunderground v.1.15,2013-10-21 03:40:00,
2013-10-20 23:45:00,46.0,41.7,29.68,SW,219,6.0,-999.0,85,0.00,,,0.00,Wunderground v.1.15,2013-10-21 03:45:00,
2013-10-20 23:50:00,46.0,41.7,29.68,SW,219,6.0,-999.0,85,0.00,,,0.00,Wunderground v.1.15,2013-10-21 03:50:00,